sat.trackr.live / text

‹ back to catalog

STARLINK-11093 [DTC]

NORAD 59423 · 2024-065C

PAYLOAD ACTIVE UNKNOWN

§ Identity

Operator
Country
US
Launch date
2024-04-07
Launch site
AFWTR
Launch vehicle
Mass (kg)
RCS (m²)

Purposes: comms

External: N2YO · Heavens-Above · Gunter

§ Orbital elements

Epoch: 2026-05-25T02:21:37.896192Z

Period
91.74 min
Inclination
53.1592°
Eccentricity
0.0001230
Mean motion
15.69707458 rev/d
Perigee alt
358.9 km
Apogee alt
360.6 km
Semi-major
6,737.9 km
B*
2.5676e-5
RAAN
77.2398°
Arg perigee
124.1400°
Mean anomaly
235.9735°
Rev number
12,352

§ Raw data

STARLINK-11093 [DTC]1 59423U 24065C   26145.09835528  .00002522  00000+0  25676-4 0  99982 59423  53.1592  77.2398 0001230 124.1400 235.9735 15.69707458123523

JSON: /api/v1/satellites/59423 · /tle

For live sub-satellite position, see the globe view (requires WebGL).

§ Visibility from observer

Set your observer location to see the next 7 days of passes ≥ 10°. The values pass through the URL so the page stays shareable.

No JS? Fill the form by hand. The geolocation button needs JavaScript.